Location: Arcueil
(48.7999°N, 2.3326°E)
Time: 15:02:20
(UTC+00:00)

CZ-4B R/B - Pass Details

Date: 03 February 2023
Orbit: 809 x 881 km, 99.0° (Epoch: 25 March)

Event Time Altitude Azimuth Distance (km) Brightness Sun altitude
Rises 17:49:30 0° 138° (SE) 3,339 6.0 -9.9°
Reaches altitude 10° 17:51:57 10° 131° (SE) 2,419 5.2 -10.3°
Maximum altitude 17:56:52 39° 64° (ENE) 1,240 3.6 -11.1°
Drops below altitude 10° 18:01:54 10° 358° (N) 2,476 5.5 -11.9°
Sets 18:04:25 0° 351° (N) 3,427 6.4 -12.3°
